Date,TemperatureHighF,TemperatureAvgF,TemperatureLowF,DewpointHighF,DewpointAvgF,DewpointLowF,HumidityHigh,HumidityAvg,HumidityLow,PressureMaxIn,PressureMinIn,WindSpeedMaxMPH,WindSpeedAvgMPH,GustSpeedMaxMPH,PrecipitationSumIn
2013-1-1,37.4,33.1,16.2,37.1,32.8,-6.6,99,99,35,29.99,29.79,14,5,14,0.01
2013-1-2,35.8,26.0,18.9,24.6,22.2,18.3,99,87,59,30.06,29.95,8,2,8,0.00
2013-1-3,42.3,28.4,18.0,35.4,26.4,17.8,99,93,74,30.18,29.99,8,1,8,0.00
2013-1-4,46.4,31.5,21.2,38.1,28.6,21.0,99,90,64,30.23,30.13,17,2,17,0.00
2013-1-5,43.9,35.4,23.0,38.6,32.8,22.8,99,91,77,30.15,29.95,15,4,15,0.00
2013-1-6,43.9,35.4,23.0,42.0,33.8,22.8,99,94,81,30.16,29.90,17,6,17,0.00
2013-1-7,45.0,30.3,19.4,35.8,27.7,19.2,99,91,66,30.24,29.97,13,2,13,0.00
2013-1-8,56.3,40.5,24.1,44.2,35.7,23.7,99,85,60,30.05,29.93,18,3,18,0.00
2013-1-9,57.0,50.4,44.4,55.0,48.4,40.7,99,93,80,30.18,29.95,13,4,13,0.01
2013-1-10,66.9,55.9,45.9,66.7,55.3,43.9,99,98,79,30.17,29.62,26,9,26,0.85
2013-1-11,65.1,59.5,52.3,63.2,58.2,52.1,99,96,84,29.76,29.63,24,9,24,0.83
2013-1-12,71.6,66.4,59.9,71.3,66.1,59.6,99,99,99,29.72,29.28,30,8,30,1.02
2013-1-13,70.3,36.9,26.2,69.9,36.6,26.0,99,99,99,30.06,29.47,20,4,20,2.01
2013-1-14,28.8,25.8,22.5,27.1,25.1,22.2,99,97,88,30.19,30.05,15,2,15,0.00
2013-1-15,30.6,27.8,23.7,30.3,27.6,23.5,99,99,99,30.08,29.83,11,6,11,0.00
2013-1-16,32.9,31.2,29.5,32.7,31.0,29.2,99,99,99,29.91,29.80,9,2,9,0.00
2013-1-17,47.5,36.2,28.0,42.6,34.1,27.8,99,92,79,30.24,29.85,21,5,21,0.06
2013-1-18,49.3,37.4,23.4,36.4,31.5,23.1,99,81,58,30.32,30.05,21,6,21,0.00
2013-1-19,57.2,48.7,41.2,43.4,38.4,33.5,82,68,58,30.05,29.51,31,10,31,0.00
2013-1-20,47.3,39.2,29.3,40.7,30.6,22.4,99,73,41,29.76,29.58,16,4,16,0.00
2013-1-21,35.8,28.8,23.2,24.0,18.6,8.6,85,66,49,29.81,29.67,15,5,15,0.00
2013-1-22,25.5,22.2,17.6,11.5,6.5,1.9,65,50,42,29.93,29.80,12,4,12,0.00
2013-1-23,47.7,32.6,18.9,36.9,25.3,10.4,99,75,57,29.83,29.58,17,4,17,0.00
2013-1-24,34.9,31.0,26.1,34.0,20.1,12.8,99,65,48,29.87,29.69,23,10,23,0.00
2013-1-25,41.0,31.8,26.6,35.4,28.7,13.2,99,90,48,29.71,29.56,17,4,17,0.02
2013-1-26,45.7,34.3,24.4,36.8,28.5,24.2,99,81,55,29.82,29.69,13,4,13,0.00
2013-1-27,52.3,40.0,31.5,51.9,39.5,27.5,99,98,83,29.78,29.55,20,6,20,0.15
2013-1-28,57.2,54.6,51.4,56.9,52.9,50.5,99,94,83,29.58,29.54,25,13,25,0.15
2013-1-29,71.8,69.1,67.6,71.5,68.8,67.4,99,99,99,29.17,28.90,30,19,30,0.01
2013-1-30,71.8,49.0,34.0,71.5,47.0,28.7,99,93,80,29.38,28.90,28,11,28,0.53
2013-1-31,42.1,34.3,23.2,35.4,28.4,17.1,99,79,67,29.76,29.38,17,8,17,0.00
2013-2-1,27.5,21.8,14.4,20.9,13.6,7.5,81,70,58,29.99,29.76,14,6,14,0.00
2013-2-2,42.4,35.0,25.9,36.5,29.4,20.6,99,80,65,29.77,29.52,25,6,25,0.00
2013-2-3,43.5,35.9,27.5,38.7,31.9,25.5,99,86,63,29.63,29.45,15,4,15,0.00
2013-2-4,51.4,40.7,29.7,46.0,38.2,29.4,99,92,58,29.56,29.34,28,8,28,0.06
2013-2-5,56.7,43.9,37.4,49.6,41.9,37.1,99,93,66,29.54,29.37,16,4,17,0.00
2013-2-6,53.2,42.9,30.0,42.5,37.9,29.6,99,84,62,29.72,29.54,14,4,14,0.00
2013-2-7,65.7,49.9,35.4,59.7,46.3,35.0,99,88,68,29.55,29.30,19,4,19,0.40
2013-2-8,50.7,40.5,33.8,50.5,39.4,33.2,99,96,85,29.83,29.37,21,8,21,0.02
2013-2-9,48.7,40.7,32.4,41.3,36.4,31.9,99,86,66,29.84,29.52,17,7,17,0.00
2013-2-10,58.1,53.7,47.1,57.8,50.3,40.3,99,89,69,29.52,29.17,33,13,33,0.45
2013-2-11,57.0,47.3,33.4,56.8,39.8,33.0,99,76,56,29.61,29.31,20,7,20,0.00
2013-2-12,50.0,41.6,28.2,42.4,35.9,28.0,99,82,62,29.61,29.31,17,4,17,0.00
2013-2-13,43.9,40.9,38.7,41.7,39.8,38.4,99,96,88,29.41,29.26,14,6,14,0.13
2013-2-14,60.1,47.2,37.2,48.6,43.2,37.0,99,87,64,29.48,29.37,22,7,22,0.00
2013-2-15,47.5,40.7,31.3,41.6,33.3,22.2,99,76,48,29.68,29.47,15,5,15,0.00
2013-2-16,38.1,29.6,23.2,23.2,18.0,14.7,86,63,40,29.78,29.62,11,2,12,0.00
2013-2-17,47.5,34.4,19.4,32.2,25.9,18.3,99,74,50,29.84,29.64,18,5,18,0.00
2013-2-18,77.9,46.3,40.1,51.5,41.1,17.0,99,83,10,29.65,29.42,34,12,34,0.77
2013-2-19,44.8,39.0,29.1,44.0,29.1,19.7,99,70,39,30.01,29.57,24,7,24,0.02
2013-2-20,32.9,28.1,24.6,23.5,20.0,16.0,89,72,60,30.10,29.98,14,5,14,0.00
2013-2-21,39.2,31.7,25.3,38.9,28.0,22.1,99,87,65,30.00,29.53,26,10,26,0.80
2013-2-22,42.3,40.9,39.2,42.0,40.6,38.9,99,99,99,29.63,29.52,17,7,17,0.02
2013-2-23,45.7,38.8,29.5,34.4,32.1,29.1,99,78,61,29.76,29.65,11,3,11,0.00
2013-2-24,51.6,36.1,24.6,36.4,30.9,24.4,99,83,54,29.84,29.69,14,4,14,0.00
2013-2-25,59.4,47.3,34.2,45.9,36.2,31.1,98,67,43,29.74,29.17,27,12,27,0.11
2013-2-26,50.9,45.3,39.4,50.6,45.0,38.9,99,99,95,29.37,29.04,28,11,28,0.56
2013-2-27,40.1,38.0,35.2,39.3,37.2,34.7,99,97,83,29.60,29.37,25,10,25,0.02
2013-2-28,39.4,36.0,33.8,37.9,35.1,32.3,99,97,89,29.78,29.58,100,4,100,0.01
2013-3-1,40.5,34.5,32.2,40.2,34.2,31.9,99,99,99,29.81,29.73,11,3,100,0.13
2013-3-2,34.0,31.6,30.2,31.9,30.3,23.3,99,95,73,29.90,29.77,17,6,17,0.01
2013-3-3,43.0,34.1,24.4,34.6,26.8,22.5,99,76,52,29.89,29.76,12,3,12,0.00
2013-3-4,77.9,47.7,37.0,45.8,36.1,17.0,92,65,49,29.80,29.48,24,9,24,0.00
2013-3-5,50.5,41.2,33.3,47.9,39.6,27.1,99,94,73,29.75,29.44,22,7,22,0.19
2013-3-6,43.5,36.8,33.6,34.9,32.2,29.1,97,83,70,30.03,29.74,19,7,22,0.00
2013-3-7,45.1,36.1,28.4,37.2,32.8,28.2,99,88,72,30.10,30.01,14,4,14,0.00
2013-3-8,45.9,39.8,27.1,38.4,34.4,26.9,99,82,71,30.14,30.05,16,9,16,0.00
2013-3-9,67.5,54.4,45.9,46.4,41.0,37.0,71,61,44,30.08,29.63,19,10,19,0.00
2013-3-10,68.5,59.0,51.1,61.4,50.9,45.1,99,76,56,29.64,29.05,36,13,36,0.50
2013-3-11,54.3,43.8,38.8,53.9,42.7,36.7,99,96,89,29.70,29.42,28,9,28,0.01
2013-3-12,54.9,42.0,29.3,38.1,34.4,-0.6,99,76,52,29.87,29.70,15,4,15,0.11
2013-3-13,44.2,36.2,29.3,34.2,29.2,25.4,88,76,67,30.12,29.87,11,3,15,0.00
2013-3-14,45.1,35.2,23.5,40.0,31.7,23.3,99,89,58,30.12,29.85,14,4,14,0.06
2013-3-15,75.4,57.1,31.5,60.4,50.2,31.0,99,80,59,29.85,29.51,33,7,33,0.00
2013-3-16,70.0,61.5,45.1,61.7,54.8,44.9,99,79,70,29.94,29.68,28,12,28,0.00
2013-3-17,49.1,42.5,39.2,44.9,42.2,-5.1,99,99,99,30.02,29.67,20,9,20,0.60
2013-3-18,52.7,45.9,36.0,52.4,45.5,35.7,99,99,92,29.95,29.60,21,5,21,0.97
2013-3-19,48.4,37.7,34.2,37.7,35.0,25.0,99,92,41,30.16,29.95,6,3,6,0.00
2013-3-20,42.8,34.3,29.1,31.6,26.1,20.9,99,73,56,30.15,30.05,16,6,16,0.00
2013-3-21,42.1,33.5,23.2,26.8,22.6,19.2,92,65,48,30.08,29.94,14,4,14,0.00
2013-3-22,42.6,38.0,34.0,33.0,29.1,26.1,75,70,62,30.01,29.93,11,6,11,0.00
2013-3-23,56.1,47.3,40.3,48.5,39.6,32.3,99,75,63,29.97,29.69,21,8,21,0.12
2013-3-24,46.4,40.8,33.8,46.1,40.5,33.6,99,99,99,29.72,29.40,26,8,26,0.19
2013-3-25,37.8,34.9,32.7,36.5,33.9,31.9,99,96,88,30.12,29.71,21,8,21,0.00
2013-3-26,42.8,35.6,30.0,34.2,32.1,29.0,99,88,70,30.32,30.12,9,2,9,0.01
2013-3-27,50.7,38.8,24.1,40.8,32.7,23.7,99,81,58,30.38,30.27,13,2,13,0.00
2013-3-28,60.4,48.9,39.4,45.8,40.6,36.0,96,74,54,30.35,30.20,12,3,12,0.00
2013-3-29,57.6,50.7,45.1,56.8,49.6,43.1,99,96,75,30.23,30.13,11,4,11,0.52
2013-3-30,54.9,49.4,41.9,54.2,49.0,41.6,99,99,96,30.16,29.87,15,4,15,0.50
2013-3-31,62.6,54.7,50.0,60.1,53.6,-0.6,99,96,82,29.92,29.82,13,3,13,0.01
2013-4-1,57.4,50.1,42.1,46.3,39.7,31.6,85,68,50,29.95,29.76,15,6,15,0.00
2013-4-2,48.2,42.5,36.1,33.2,29.9,26.1,77,62,44,30.08,29.76,15,4,15,0.00
2013-4-3,53.6,48.8,36.3,33.0,30.9,27.6,77,51,42,29.77,29.62,24,11,24,0.00
2013-4-4,51.1,46.8,42.4,46.1,37.8,29.3,86,71,57,29.62,29.44,13,6,13,0.00
2013-4-5,70.7,56.7,33.6,49.5,45.2,33.4,99,68,43,29.56,29.44,14,3,14,0.00
2013-4-6,74.7,61.2,43.7,54.6,49.0,43.4,99,68,43,29.80,29.30,27,8,27,0.00
2013-4-7,73.8,67.7,63.0,66.3,58.7,49.8,89,74,54,29.87,29.79,23,10,23,0.00
2013-4-8,76.1,68.7,62.8,66.6,63.4,58.5,99,84,70,29.82,29.74,33,10,33,0.00
2013-4-9,79.9,71.6,59.9,74.8,69.6,59.6,99,94,82,29.92,29.79,27,9,27,0.00
2013-4-10,83.8,73.9,72.1,74.4,72.0,70.7,99,94,72,29.81,29.57,24,7,24,0.00
2013-4-11,66.9,58.3,50.0,66.7,58.1,49.7,99,99,99,29.77,29.63,40,6,40,1.89
2013-4-12,56.1,49.8,44.2,49.7,48.4,39.7,99,95,63,30.06,29.72,14,3,14,0.01
2013-4-13,66.4,52.0,35.6,53.0,45.5,35.4,99,80,58,30.14,29.97,13,3,13,0.00
2013-4-14,76.8,63.1,50.2,61.3,55.3,49.8,99,78,53,29.98,29.78,30,10,30,0.00
2013-4-15,76.8,65.2,63.3,68.8,59.8,58.1,89,83,76,29.94,29.85,14,9,14,0.00
2013-4-16,82.4,74.2,67.1,80.6,73.6,66.8,99,98,90,30.08,29.92,21,8,21,0.00
2013-4-17,77.9,72.0,63.5,76.6,71.3,63.1,99,97,90,30.08,29.87,24,4,24,0.00
2013-4-18,82.9,74.2,46.8,76.5,71.6,46.3,99,92,75,29.87,29.63,39,15,39,1.22
2013-4-19,49.6,44.9,37.8,46.3,40.8,37.4,99,86,69,30.20,29.81,24,7,24,0.09
2013-4-20,62.1,49.2,33.3,48.0,40.6,33.0,99,75,49,30.43,30.20,14,3,14,0.00
2013-4-21,66.4,53.4,41.2,46.0,41.5,38.1,90,66,42,30.52,30.34,18,6,18,0.00
2013-4-22,75.2,60.4,41.5,58.3,51.5,41.3,99,75,51,30.37,30.14,18,5,18,0.00
2013-4-23,74.8,66.5,57.2,69.0,62.8,54.7,99,88,74,30.19,29.96,24,10,24,0.00
2013-4-24,68.7,47.7,42.6,66.5,46.3,42.2,99,95,79,30.35,29.96,19,4,19,0.52
2013-4-25,66.4,54.5,33.3,51.8,46.9,33.0,99,78,54,30.48,30.39,99,4,99,0.00
2013-4-26,54.1,51.3,45.7,53.9,50.0,45.4,99,95,81,30.55,30.36,15,4,15,0.50
2013-4-27,60.6,55.8,50.9,60.4,55.5,-0.6,99,99,99,30.41,30.00,14,5,14,0.69
2013-4-28,60.8,58.1,52.5,60.5,57.8,52.1,99,99,99,30.07,29.97,12,4,12,0.01
2013-4-29,77.9,62.1,50.0,67.9,59.5,17.0,99,92,73,30.12,29.76,16,4,16,0.00
2013-4-30,84.4,68.9,53.1,71.1,63.0,52.8,99,84,55,29.87,29.78,17,4,17,0.00
2013-5-1,82.6,69.7,55.6,74.8,66.3,55.3,99,90,70,29.98,29.87,15,4,15,0.00
2013-5-2,75.4,68.0,58.8,70.7,65.9,58.4,99,93,78,30.04,29.91,14,2,14,0.00
2013-5-3,124.0,64.3,44.4,69.0,62.2,44.2,99,93,77,29.91,29.64,24,9,24,0.37
2013-5-4,53.8,47.2,41.7,50.6,46.0,41.5,99,96,82,29.86,29.75,11,4,11,0.71
2013-5-5,61.7,55.1,44.1,60.5,54.8,43.8,99,99,95,29.83,29.70,10,2,10,0.01
2013-5-6,67.8,58.2,53.4,66.7,57.9,53.2,99,99,95,29.81,29.69,15,4,15,0.06
2013-5-7,74.1,62.4,50.9,70.0,61.0,50.6,99,95,81,29.88,29.79,14,2,14,0.01
2013-5-8,82.6,67.8,55.6,70.9,63.7,55.3,99,88,58,29.93,29.83,11,2,11,0.00
2013-5-9,81.5,70.1,61.2,73.3,67.3,60.9,99,91,75,29.93,29.80,23,5,23,0.00
2013-5-10,76.8,68.0,62.8,75.6,67.7,62.5,99,99,90,29.84,29.70,17,5,17,0.40
2013-5-11,72.3,62.0,55.4,65.3,58.8,8.2,99,90,67,30.00,29.82,13,3,13,0.00
2013-5-12,65.5,55.1,43.7,49.7,44.9,38.1,99,71,44,30.09,30.00,12,2,12,0.00
2013-5-13,71.6,57.0,39.0,55.4,47.2,38.8,99,74,43,30.15,30.00,14,2,14,0.00
2013-5-14,86.4,71.8,54.1,72.5,64.4,52.7,99,79,59,30.00,29.80,27,10,27,0.00
2013-5-15,79.2,73.5,70.0,68.9,66.1,62.9,84,78,67,29.86,29.80,21,6,21,0.00
2013-5-16,82.2,74.3,68.4,73.6,69.5,63.2,99,86,68,29.87,29.78,15,5,15,0.00
2013-5-17,72.0,68.3,65.5,71.7,68.0,65.2,99,99,99,29.88,29.80,15,5,15,0.22
2013-5-18,82.0,72.3,-14.3,78.8,71.4,-15.3,99,97,85,29.88,29.80,8,2,8,0.01
2013-5-19,88.9,79.0,69.6,86.3,77.6,69.2,99,96,77,29.82,29.72,19,6,19,0.00
2013-5-20,86.9,79.4,71.6,83.2,78.2,71.3,99,96,83,29.84,29.69,21,8,21,0.00
2013-5-21,80.4,71.4,66.4,79.1,71.1,66.1,99,99,91,29.82,29.67,27,8,27,0.83
2013-5-22,78.8,70.6,64.4,75.0,69.2,64.1,99,95,79,29.75,29.64,24,8,24,0.13
2013-5-23,75.0,67.2,57.4,68.8,64.8,57.1,99,93,77,30.07,29.74,21,5,21,0.00
2013-5-24,70.7,59.4,48.0,58.3,53.8,47.6,99,84,51,30.25,30.06,17,4,17,0.00
2013-5-25,77.7,63.1,46.9,64.7,56.6,46.7,99,82,42,30.25,29.76,13,3,13,0.00
2013-5-26,82.0,70.4,59.2,73.1,65.9,58.7,99,87,69,29.79,29.67,14,5,14,0.00
2013-5-27,84.9,78.9,68.2,78.0,72.6,66.4,99,81,67,29.67,29.51,24,9,24,0.00
2013-5-28,86.9,79.0,69.8,79.8,74.3,67.4,99,86,68,29.61,29.52,25,10,25,0.00
2013-5-29,87.8,79.9,66.6,79.2,74.8,66.0,99,85,69,29.58,29.52,21,7,21,0.00
2013-5-30,87.3,78.7,0.0,83.0,77.4,68.6,99,94,80,29.76,29.33,32,10,32,0.21
2013-5-31,81.5,75.1,69.3,81.3,74.9,68.6,99,99,99,29.75,29.24,21,8,21,0.35
2013-6-1,79.0,69.6,64.2,78.7,69.3,64.0,99,99,96,29.74,29.32,26,7,26,3.34
2013-6-2,78.8,71.1,64.0,74.1,69.5,63.6,99,95,81,29.74,29.65,11,3,11,0.01
2013-6-3,75.6,67.1,60.1,70.8,65.1,59.8,99,94,78,29.83,29.71,15,3,15,0.00
2013-6-4,60.6,58.6,57.6,60.0,58.4,57.1,99,99,99,29.80,29.79,2,1,2,0.00
2013-6-5,80.6,76.5,71.1,78.4,75.6,70.8,99,97,86,29.60,29.57,8,3,8,0.00
2013-6-6,84.2,74.2,65.8,79.6,72.5,65.6,99,95,79,29.60,29.51,11,3,11,0.01
2013-6-7,71.8,70.6,69.3,71.5,70.4,69.0,99,99,99,29.57,29.53,6,2,6,0.00
2013-6-8,81.5,73.3,64.6,71.1,68.1,64.3,99,85,65,29.95,29.89,10,2,10,0.00
2013-6-9,77.5,69.3,62.8,77.3,69.0,62.5,99,99,99,29.96,29.60,13,3,13,0.00
2013-6-10,83.8,73.1,66.0,79.8,71.7,65.8,99,96,81,29.73,29.61,21,4,21,0.00
2013-6-11,93.6,79.6,61.9,88.1,77.5,61.6,99,93,79,29.79,29.69,14,4,14,0.00
2013-6-12,88.2,84.9,82.6,85.1,84.0,82.4,99,97,90,29.74,29.62,21,7,21,0.00
2013-6-13,85.5,80.0,67.3,84.1,78.0,66.8,99,94,79,29.76,29.59,21,6,21,0.00
2013-6-14,84.6,72.8,59.5,73.9,68.0,59.3,99,86,65,29.86,29.74,15,3,15,0.00
2013-6-15,89.4,79.5,64.6,80.2,74.7,64.3,99,86,63,29.90,29.76,13,4,13,0.00
2013-6-16,86.4,82.5,72.1,84.0,80.4,71.9,99,93,87,29.82,29.72,16,4,16,0.00
2013-6-17,87.6,78.1,69.4,86.4,77.7,69.2,99,98,92,29.75,29.66,28,4,28,0.13
2013-6-21,90.9,85.4,77.2,85.7,82.5,76.9,99,91,76,29.81,29.71,14,5,14,0.00
2013-6-22,90.5,81.2,71.6,83.5,78.6,18.9,99,92,74,29.79,29.68,14,5,14,0.00
2013-6-23,90.3,80.0,70.7,82.9,77.5,70.4,99,92,74,29.75,29.64,17,5,17,0.00
2013-6-24,90.3,79.3,73.8,87.0,78.5,73.5,99,97,86,29.77,29.68,12,2,12,0.00
2013-6-25,90.9,85.7,81.0,86.9,84.1,80.7,99,95,86,29.61,29.56,17,7,17,0.00
2013-6-26,91.2,83.1,75.0,87.9,81.7,74.8,99,96,86,29.63,29.42,30,10,30,0.15
2013-6-27,92.1,81.6,72.1,86.7,81.0,71.9,99,98,77,29.53,29.46,11,4,11,0.00
2013-6-28,91.9,81.2,71.1,85.9,77.7,70.6,99,90,65,29.51,29.33,12,2,12,0.00
2013-6-29,86.4,76.5,66.2,77.4,72.3,65.9,99,88,69,29.39,29.29,20,4,20,0.00
2013-6-30,78.3,68.1,62.2,77.7,67.9,62.0,99,99,96,29.50,29.35,9,2,9,0.00
2013-7-1,73.8,69.0,66.4,73.5,68.8,65.9,99,99,99,29.57,29.46,15,3,15,0.00
2013-7-2,77.7,69.0,63.3,76.8,68.8,63.1,99,99,95,29.70,29.54,18,4,18,0.00
2013-7-3,81.9,70.1,61.3,77.3,69.0,61.1,99,96,84,29.78,29.69,10,3,10,0.00
2013-8-6,76.8,76.4,76.1,76.6,76.1,75.9,99,99,99,29.77,29.75,5,2,5,4.11
2013-8-7,81.7,76.8,73.6,81.3,76.5,73.3,99,99,99,29.79,29.71,7,1,7,0.21
2013-8-8,81.1,75.6,70.9,80.9,75.3,70.6,99,99,99,29.81,29.74,4,1,5,0.08
2013-8-9,86.5,76.9,72.1,86.3,76.7,71.9,99,99,99,29.85,29.77,8,3,10,0.50
2013-8-12,79.7,75.0,73.0,79.5,74.8,72.8,99,99,99,29.80,29.74,8,3,8,0.91
2013-8-13,86.2,77.3,68.0,83.6,76.4,67.7,99,97,76,29.88,29.75,15,3,15,0.00
2013-8-14,75.6,67.2,58.1,67.7,63.9,8.2,99,90,71,29.97,29.87,19,6,19,0.00
2013-8-15,77.7,66.3,54.9,70.9,63.6,54.6,99,92,75,29.95,29.86,15,4,15,0.00
2013-8-16,77.9,67.8,60.4,75.8,67.3,60.2,99,98,90,29.93,29.75,14,3,14,0.04
2013-8-17,80.4,70.2,65.5,79.8,69.9,65.2,99,99,96,29.79,29.69,19,4,19,1.45
2013-8-18,76.6,68.1,64.2,76.4,67.9,64.0,99,99,99,29.80,29.71,5,1,5,0.00
2013-8-19,82.0,70.7,69.6,81.5,70.5,69.4,99,99,99,29.75,29.66,4,0,4,0.00
2013-8-20,89.8,77.6,67.5,85.1,76.1,67.2,99,96,78,29.76,29.67,11,2,11,0.00
2013-8-21,90.3,79.3,68.5,87.3,78.0,68.3,99,96,80,29.79,29.69,10,2,10,0.00
2013-8-22,88.3,78.6,76.8,86.4,78.3,76.6,99,99,90,29.70,29.65,4,0,4,0.00
2013-8-23,81.7,76.9,73.2,81.5,76.6,72.8,99,99,99,29.72,29.66,4,0,4,0.02
2013-8-24,89.1,78.3,70.0,85.2,76.8,69.7,99,95,80,29.83,29.72,16,3,16,0.00
2013-8-25,88.5,75.9,67.8,88.1,75.7,67.6,99,99,97,29.92,29.83,12,3,12,0.00
2013-8-26,86.2,74.9,72.5,85.8,74.6,72.2,99,99,99,29.87,29.76,13,2,13,0.00
2013-8-27,88.7,79.8,71.6,87.2,79.5,71.3,99,99,93,29.78,29.67,14,5,14,0.00
2013-8-28,93.4,83.5,70.5,86.9,81.1,70.3,99,93,75,29.70,29.63,14,3,14,0.00
2013-8-29,90.5,83.4,73.6,88.0,82.2,73.3,99,96,90,29.68,29.60,10,2,10,0.00
2013-8-30,95.2,84.2,73.2,89.9,82.0,73.0,99,93,73,29.64,29.51,12,3,12,0.00
2013-8-31,94.5,84.9,76.5,91.3,83.9,76.2,99,97,84,29.54,29.42,17,5,17,0.00
2013-9-1,84.2,78.6,70.3,84.0,78.4,70.1,99,99,99,29.83,29.42,26,7,26,1.30
2013-9-2,89.6,78.2,70.0,88.7,77.8,69.7,99,99,90,29.86,29.77,9,2,9,0.00
2013-9-3,86.2,74.2,64.9,80.5,72.5,64.7,99,95,76,30.00,29.86,9,2,9,0.00
2013-9-4,82.4,71.3,60.8,76.3,69.0,60.5,99,93,75,30.10,30.00,10,2,10,0.00
2013-9-5,85.5,72.1,59.9,79.6,70.4,59.6,99,95,79,30.14,30.06,12,2,12,0.00
2013-9-6,72.7,70.6,64.8,72.4,70.3,64.5,99,99,99,30.11,30.00,4,2,4,0.00
2013-9-7,89.1,76.5,66.4,84.4,74.9,66.1,99,95,79,30.03,29.90,14,2,14,0.00
2013-9-8,88.9,78.5,68.0,86.4,77.9,67.7,99,98,90,29.94,29.85,8,2,8,0.00
2013-9-9,93.2,82.5,75.9,87.9,81.0,75.7,99,95,80,29.96,29.88,13,4,13,0.00
2013-9-10,92.7,82.1,74.7,90.2,81.4,74.4,99,97,86,30.09,29.96,14,3,14,0.00